| time (UTC) | temp F | wind direction | speed knots | gust knots | rain 1hr in | rain 24hr in | rain mn in | humidity % | barometer mb |
| 20260502195027 | 49 | 247 | 0.9 | 5.2 | 0.00 | 0.00 | 0.00 | 36 | 1015.5 |
| 20260502194541 | 49 | 244 | 2.6 | 7.0 | 0.00 | 0.00 | 0.00 | 38 | 1015.5 |
| 20260502194027 | 49 | 340 | 2.6 | 7.0 | 0.00 | 0.00 | 0.00 | 36 | 1015.6 |
| 20260502193528 | 49 | 289 | 1.7 | 5.2 | 0.00 | 0.00 | 0.00 | 37 | 1015.8 |
| 20260502193037 | 49 | 289 | 1.7 | 4.3 | 0.00 | 0.00 | 0.00 | 38 | 1015.8 |
| 20260502192528 | 49 | 231 | 1.7 | 7.0 | 0.00 | 0.00 | 0.00 | 41 | 1015.9 |
| 20260502192027 | 49 | 241 | 3.5 | 7.0 | 0.00 | 0.00 | 0.00 | 39 | 1015.9 |
| 20260502191550 | 48 | 346 | 1.7 | 9.6 | 0.00 | 0.00 | 0.00 | 42 | 1015.9 |
| 20260502191030 | 48 | 288 | 4.3 | 9.6 | 0.00 | 0.00 | 0.00 | 41 | 1016.0 |
| 20260502190530 | 48 | 219 | 1.7 | 7.8 | 0.00 | 0.00 | 0.00 | 38 | 1016.1 |
| 20260502190041 | 48 | 307 | 3.5 | 9.6 | 0.00 | 0.00 | 0.00 | 39 | 1016.1 |
| 20260502185529 | 48 | 297 | 6.1 | 9.6 | 0.00 | 0.00 | 0.00 | 36 | 1016.1 |
| 20260502185027 | 49 | 287 | 4.3 | 9.6 | 0.00 | 0.00 | 0.00 | 36 | 1016.2 |
| 20260502184553 | 49 | 293 | 2.6 | 6.1 | 0.00 | 0.00 | 0.00 | 41 | 1016.3 |
| 20260502184028 | 48 | 283 | 0.9 | 8.7 | 0.00 | 0.00 | 0.00 | 39 | 1016.2 |
| 20260502183527 | 48 | 288 | 3.5 | 8.7 | 0.00 | 0.00 | 0.00 | 40 | 1016.3 |
| 20260502183101 | 49 | 239 | 3.5 | 8.7 | 0.00 | 0.00 | 0.00 | 36 | 1016.3 |
| 20260502182532 | 48 | 297 | 2.6 | 13.0 | 0.00 | 0.00 | 0.00 | 44 | 1016.3 |
| 20260502182033 | 48 | 285 | 3.5 | 13.0 | 0.00 | 0.00 | 0.00 | 39 | 1016.4 |
| 20260502181544 | 48 | 290 | 6.1 | 13.0 | 0.00 | 0.00 | 0.00 | 37 | 1016.5 |
| 20260502181031 | 48 | 309 | 3.5 | 12.2 | 0.00 | 0.00 | 0.00 | 39 | 1016.5 |
| 20260502180531 | 48 | 307 | 6.1 | 12.2 | 0.00 | 0.00 | 0.00 | 41 | 1016.5 |
| 20260502164030 | 45 | 340 | 5.2 | 11.3 | 0.00 | 0.00 | 0.00 | 41 | 1017.0 |
| 20260502163531 | 45 | 339 | 7.0 | 11.3 | 0.00 | 0.00 | 0.00 | 44 | 1017.2 |
| 20260502163052 | 45 | 292 | 3.5 | 14.8 | 0.00 | 0.00 | 0.00 | 42 | 1017.1 |
| 20260502162532 | 45 | 354 | 7.8 | 14.8 | 0.00 | 0.00 | 0.00 | 41 | 1017.1 |
| 20260502162034 | 45 | 314 | 5.2 | 11.3 | 0.00 | 0.00 | 0.00 | 42 | 1017.1 |
| 20260502161539 | 44 | 333 | 6.1 | 11.3 | 0.00 | 0.00 | 0.00 | 42 | 1017.1 |
| 20260502161031 | 44 | 336 | 6.1 | 11.3 | 0.00 | 0.00 | 0.00 | 41 | 1017.1 |
| 20260502160532 | 45 | 350 | 4.3 | 11.3 | 0.00 | 0.00 | 0.00 | 46 | 1017.1 |
| 20260502152032 | 43 | 332 | 7.0 | 14.8 | 0.00 | 0.00 | 0.00 | 50 | 1017.6 |
| 20260502151538 | 43 | 333 | 6.1 | 14.8 | 0.00 | 0.00 | 0.00 | 47 | 1017.5 |
| 20260502151027 | 43 | 48 | 7.0 | 12.2 | 0.00 | 0.00 | 0.00 | 53 | 1017.6 |
| 20260502150530 | 42 | 288 | 4.3 | 11.3 | 0.00 | 0.00 | 0.00 | 53 | 1017.6 |
| 20260502130527 | 37 | 304 | 4.3 | 8.7 | 0.00 | 0.00 | 0.00 | 72 | 1018.2 |
| 20260502123530 | 36 | 319 | 2.6 | 6.1 | 0.00 | 0.00 | 0.00 | 79 | 1018.3 |
| 20260502123039 | 36 | 311 | 1.7 | 6.1 | 0.00 | 0.00 | 0.00 | 81 | 1018.5 |
| 20260502122528 | 35 | 344 | 1.7 | 6.1 | 0.00 | 0.00 | 0.00 | 82 | 1018.5 |
| 20260502122030 | 35 | 319 | 2.6 | 6.1 | 0.00 | 0.00 | 0.00 | 81 | 1018.5 |
| 20260502121545 | 35 | 297 | 2.6 | 6.1 | 0.00 | 0.00 | 0.00 | 82 | 1018.5 |
| 20260502121030 | 34 | 289 | 1.7 | 4.3 | 0.00 | 0.00 | 0.00 | 82 | 1018.5 |
| 20260502120530 | 34 | 290 | 1.7 | 4.3 | 0.00 | 0.00 | 0.00 | 82 | 1018.4 |
| 20260502115528 | 33 | 294 | 0.9 | 3.5 | 0.00 | 0.00 | 0.00 | 84 | 1018.4 |
| 20260502115028 | 33 | 322 | 1.7 | 3.5 | 0.00 | 0.00 | 0.00 | 84 | 1018.4 |
| 20260502114542 | 32 | 310 | 0.0 | 1.7 | 0.00 | 0.00 | 0.00 | 86 | 1018.3 |
| 20260502114031 | 32 | 0 | 0.0 | 0.9 | 0.00 | 0.00 | 0.00 | 86 | 1018.3 |
| 20260502113531 | 31 | 310 | 0.0 | 1.7 | 0.00 | 0.00 | 0.00 | 86 | 1018.3 |
| 20260502113038 | 31 | 0 | 0.0 | 2.6 | 0.00 | 0.00 | 0.00 | 86 | 1018.2 |
| 20260502112530 | 31 | 0 | 0.0 | 2.6 | 0.00 | 0.00 | 0.00 | 86 | 1018.2 |
| 20260502112031 | 31 | 328 | 0.0 | 3.5 | 0.00 | 0.00 | 0.00 | 86 | 1018.2 |
| 20260502111538 | 31 | 290 | 0.9 | 3.5 | 0.00 | 0.00 | 0.00 | 86 | 1018.2 |
| 20260502111030 | 31 | 310 | 0.9 | 2.6 | 0.00 | 0.00 | 0.00 | 86 | 1018.2 |
| 20260502110528 | 31 | 302 | 0.9 | 3.5 | 0.00 | 0.00 | 0.00 | 86 | 1018.2 |
| 20260502110043 | 31 | 302 | 1.7 | 3.5 | 0.00 | 0.00 | 0.00 | 86 | 1018.1 |
| 20260502105530 | 31 | 282 | 1.7 | 2.6 | 0.00 | 0.00 | 0.00 | 86 | 1018.1 |
| 20260502105031 | 31 | 282 | 0.9 | 2.6 | 0.00 | 0.00 | 0.00 | 86 | 1018.1 |
| 20260502104541 | 31 | 282 | 0.9 | 2.6 | 0.00 | 0.00 | 0.00 | 85 | 1018.0 |
| 20260502104030 | 31 | 282 | 0.9 | 2.6 | 0.00 | 0.00 | 0.00 | 85 | 1018.0 |
| 20260502103531 | 31 | 282 | 0.9 | 2.6 | 0.00 | 0.00 | 0.00 | 85 | 1018.0 |
| 20260502103042 | 31 | 282 | 0.9 | 2.6 | 0.00 | 0.00 | 0.00 | 85 | 1018.0 |
| 20260502102531 | 31 | 282 | 0.9 | 2.6 | 0.00 | 0.00 | 0.00 | 84 | 1017.9 |
| 20260502102031 | 32 | 282 | 0.9 | 2.6 | 0.00 | 0.00 | 0.00 | 84 | 1018.0 |
| 20260502101545 | 32 | 282 | 0.9 | 3.5 | 0.00 | 0.00 | 0.00 | 84 | 1018.1 |
| 20260502101030 | 32 | 271 | 0.9 | 3.5 | 0.00 | 0.00 | 0.00 | 84 | 1018.0 |
| 20260502100528 | 32 | 267 | 1.7 | 3.5 | 0.00 | 0.00 | 0.00 | 83 | 1018.0 |
| 20260502091027 | 32 | 311 | 0.0 | 1.7 | 0.00 | 0.00 | 0.00 | 81 | 1017.8 |
| 20260502090538 | 32 | 311 | 0.0 | 1.7 | 0.00 | 0.00 | 0.00 | 81 | 1017.7 |
| 20260502071028 | 36 | 280 | 0.9 | 4.3 | 0.00 | 0.00 | 0.00 | 74 | 1017.5 |
| 20260502070530 | 36 | 344 | 0.9 | 2.6 | 0.00 | 0.00 | 0.00 | 75 | 1017.6 |
| 20260502070041 | 36 | 344 | 0.9 | 1.7 | 0.00 | 0.00 | 0.00 | 74 | 1017.6 |
| 20260502065528 | 36 | 0 | 0.0 | 2.6 | 0.00 | 0.00 | 0.00 | 75 | 1017.7 |
| 20260502065029 | 36 | 344 | 0.9 | 2.6 | 0.00 | 0.00 | 0.00 | 74 | 1017.6 |
| 20260502064538 | 36 | 344 | 0.9 | 2.6 | 0.00 | 0.00 | 0.00 | 73 | 1017.7 |
| 20260502064029 | 36 | 344 | 0.9 | 2.6 | 0.00 | 0.00 | 0.00 | 73 | 1017.7 |
| 20260502063528 | 36 | 344 | 0.9 | 3.5 | 0.00 | 0.00 | 0.00 | 73 | 1017.7 |
| 20260502063041 | 36 | 344 | 0.0 | 3.5 | 0.00 | 0.00 | 0.00 | 72 | 1017.7 |
| 20260502062530 | 36 | 344 | 0.9 | 3.5 | 0.00 | 0.00 | 0.00 | 72 | 1017.7 |
| 20260502062027 | 37 | 338 | 0.9 | 3.5 | 0.00 | 0.00 | 0.00 | 71 | 1017.7 |
| 20260502061541 | 37 | 330 | 0.9 | 3.5 | 0.00 | 0.00 | 0.00 | 71 | 1017.7 |
| 20260502061028 | 37 | 330 | 1.7 | 4.3 | 0.00 | 0.00 | 0.00 | 71 | 1017.7 |
| 20260502060529 | 37 | 323 | 1.7 | 4.3 | 0.00 | 0.00 | 0.00 | 70 | 1017.7 |
| 20260502060039 | 37 | 336 | 1.7 | 4.3 | 0.00 | 0.00 | 0.00 | 70 | 1017.7 |
| 20260502055530 | 37 | 338 | 1.7 | 4.3 | 0.00 | 0.00 | 0.00 | 70 | 1017.7 |
| 20260502055033 | 37 | 328 | 2.6 | 5.2 | 0.00 | 0.00 | 0.00 | 69 | 1017.7 |
| 20260502054544 | 37 | 335 | 3.5 | 5.2 | 0.00 | 0.00 | 0.00 | 68 | 1017.7 |
| 20260502054028 | 37 | 319 | 3.5 | 5.2 | 0.00 | 0.00 | 0.00 | 68 | 1017.7 |
| 20260502053531 | 37 | 342 | 1.7 | 4.3 | 0.00 | 0.00 | 0.00 | 68 | 1017.6 |
| 20260502053051 | 37 | 321 | 2.6 | 5.2 | 0.00 | 0.00 | 0.00 | 68 | 1017.6 |
| 20260502052532 | 37 | 333 | 3.5 | 5.2 | 0.00 | 0.00 | 0.00 | 67 | 1017.6 |
| 20260502052027 | 37 | 322 | 3.5 | 6.1 | 0.00 | 0.00 | 0.00 | 67 | 1017.6 |
| 20260502051543 | 37 | 313 | 3.5 | 7.0 | 0.00 | 0.00 | 0.00 | 66 | 1017.7 |
| 20260502051028 | 38 | 339 | 4.3 | 8.7 | 0.00 | 0.00 | 0.00 | 65 | 1017.6 |
| 20260502050531 | 38 | 349 | 3.5 | 8.7 | 0.00 | 0.00 | 0.00 | 65 | 1017.6 |
| 20260502050039 | 38 | 318 | 3.5 | 7.8 | 0.00 | 0.00 | 0.00 | 65 | 1017.5 |
| 20260502045530 | 38 | 335 | 4.3 | 7.0 | 0.00 | 0.00 | 0.00 | 65 | 1017.5 |
| 20260502045036 | 38 | 316 | 3.5 | 7.8 | 0.00 | 0.00 | 0.00 | 65 | 1017.5 |
| 20260502044538 | 38 | 332 | 3.5 | 7.8 | 0.00 | 0.00 | 0.00 | 64 | 1017.5 |
| 20260502044031 | 38 | 309 | 5.2 | 8.7 | 0.00 | 0.00 | 0.00 | 65 | 1017.5 |
| 20260502043529 | 38 | 315 | 3.5 | 8.7 | 0.00 | 0.00 | 0.00 | 66 | 1017.5 |
| 20260502043041 | 38 | 318 | 3.5 | 7.8 | 0.00 | 0.00 | 0.00 | 66 | 1017.5 |
| 20260502042530 | 38 | 344 | 3.5 | 6.1 | 0.00 | 0.00 | 0.00 | 66 | 1017.5 |
| 20260502042033 | 38 | 338 | 1.7 | 4.3 | 0.00 | 0.00 | 0.00 | 67 | 1017.5 |
| 20260502041557 | 38 | 346 | 1.7 | 3.5 | 0.00 | 0.00 | 0.00 | 67 | 1017.3 |
| 20260502041026 | 38 | 340 | 0.9 | 2.6 | 0.00 | 0.00 | 0.00 | 68 | 1017.4 |
| 20260502040528 | 38 | 340 | 0.9 | 2.6 | 0.00 | 0.00 | 0.00 | 67 | 1017.4 |
| 20260502040044 | 38 | 340 | 1.7 | 2.6 | 0.00 | 0.00 | 0.00 | 66 | 1017.4 |
| 20260502035527 | 38 | 340 | 0.9 | 3.5 | 0.00 | 0.00 | 0.00 | 66 | 1017.3 |
| 20260502035030 | 39 | 336 | 1.7 | 3.5 | 0.00 | 0.00 | 0.00 | 65 | 1017.3 |
| 20260502034542 | 39 | 319 | 0.9 | 2.6 | 0.00 | 0.00 | 0.00 | 65 | 1017.3 |
| 20260502034030 | 39 | 324 | 0.9 | 2.6 | 0.00 | 0.00 | 0.00 | 63 | 1017.3 |
| 20260502033526 | 39 | 307 | 0.9 | 3.5 | 0.00 | 0.00 | 0.00 | 63 | 1017.3 |
| 20260502033050 | 39 | 307 | 0.0 | 3.5 | 0.00 | 0.00 | 0.00 | 62 | 1017.3 |
| 20260502032529 | 39 | 309 | 0.9 | 2.6 | 0.00 | 0.00 | 0.00 | 63 | 1017.3 |
| 20260502032029 | 39 | 309 | 0.9 | 2.6 | 0.00 | 0.00 | 0.00 | 62 | 1017.3 |
| 20260502031543 | 39 | 309 | 0.9 | 2.6 | 0.00 | 0.00 | 0.00 | 64 | 1017.2 |
| 20260502031028 | 39 | 309 | 0.9 | 3.5 | 0.00 | 0.00 | 0.00 | 62 | 1017.1 |
| 20260502030527 | 39 | 288 | 0.9 | 3.5 | 0.00 | 0.00 | 0.00 | 62 | 1017.1 |
| 20260502030042 | 39 | 323 | 0.9 | 2.6 | 0.00 | 0.00 | 0.00 | 62 | 1017.0 |
| 20260502025532 | 39 | 323 | 1.7 | 3.5 | 0.00 | 0.00 | 0.00 | 61 | 1017.0 |
| 20260502025029 | 39 | 319 | 0.9 | 3.5 | 0.00 | 0.00 | 0.00 | 61 | 1017.0 |
| 20260502024542 | 39 | 312 | 0.9 | 5.2 | 0.00 | 0.00 | 0.00 | 61 | 1016.9 |
| 20260502024028 | 39 | 305 | 1.7 | 5.2 | 0.00 | 0.00 | 0.00 | 60 | 1016.9 |
| 20260502023528 | 39 | 338 | 0.9 | 3.5 | 0.00 | 0.00 | 0.00 | 60 | 1016.9 |
| 20260502023039 | 39 | 315 | 1.7 | 4.3 | 0.00 | 0.00 | 0.00 | 60 | 1017.0 |
| 20260502022530 | 39 | 347 | 1.7 | 4.3 | 0.00 | 0.00 | 0.00 | 61 | 1017.0 |
| 20260502022027 | 39 | 309 | 1.7 | 7.0 | 0.00 | 0.00 | 0.00 | 61 | 1017.0 |
| 20260502021540 | 40 | 309 | 3.5 | 7.0 | 0.00 | 0.00 | 0.00 | 60 | 1017.0 |
| 20260502021030 | 40 | 315 | 2.6 | 7.0 | 0.00 | 0.00 | 0.00 | 60 | 1016.9 |
| 20260502020527 | 40 | 326 | 3.5 | 7.0 | 0.00 | 0.00 | 0.00 | 60 | 1017.0 |
| 20260502020038 | 40 | 311 | 3.5 | 7.0 | 0.00 | 0.00 | 0.00 | 60 | 1016.8 |
| 20260502015527 | 40 | 323 | 3.5 | 6.1 | 0.00 | 0.00 | 0.00 | 59 | 1016.8 |
| 20260502015030 | 40 | 326 | 3.5 | 7.8 | 0.00 | 0.00 | 0.00 | 58 | 1016.8 |
| 20260502014538 | 40 | 322 | 3.5 | 7.8 | 0.00 | 0.00 | 0.00 | 58 | 1016.7 |
| 20260502014028 | 40 | 352 | 3.5 | 7.0 | 0.00 | 0.00 | 0.00 | 58 | 1016.7 |
| 20260502013527 | 40 | 321 | 4.3 | 7.8 | 0.00 | 0.00 | 0.00 | 57 | 1016.7 |
| 20260502013040 | 40 | 350 | 3.5 | 7.8 | 0.00 | 0.00 | 0.00 | 58 | 1016.7 |
| 20260502012526 | 40 | 310 | 2.6 | 8.7 | 0.00 | 0.00 | 0.00 | 59 | 1016.6 |
| 20260502012028 | 40 | 314 | 4.3 | 8.7 | 0.00 | 0.00 | 0.00 | 59 | 1016.6 |
| 20260502011544 | 40 | 339 | 4.3 | 7.0 | 0.00 | 0.00 | 0.00 | 58 | 1016.4 |
| 20260502011029 | 40 | 356 | 2.6 | 7.0 | 0.00 | 0.00 | 0.00 | 59 | 1016.4 |
| 20260502010529 | 40 | 340 | 3.5 | 7.8 | 0.00 | 0.00 | 0.00 | 57 | 1016.4 |
| 20260502010040 | 40 | 316 | 4.3 | 9.6 | 0.00 | 0.00 | 0.00 | 56 | 1016.3 |
| 20260502005527 | 41 | 332 | 3.5 | 9.6 | 0.00 | 0.00 | 0.00 | 56 | 1016.4 |
| 20260502005029 | 41 | 337 | 3.5 | 7.0 | 0.00 | 0.00 | 0.00 | 55 | 1016.2 |
| 20260502004538 | 41 | 322 | 3.5 | 7.0 | 0.00 | 0.00 | 0.00 | 56 | 1016.1 |
| 20260502004027 | 41 | 333 | 3.5 | 8.7 | 0.00 | 0.00 | 0.00 | 54 | 1016.0 |
| 20260502003526 | 41 | 338 | 3.5 | 8.7 | 0.00 | 0.00 | 0.00 | 54 | 1016.0 |
| 20260502003043 | 41 | 1 | 3.5 | 6.1 | 0.00 | 0.00 | 0.00 | 55 | 1016.0 |
| 20260502002532 | 41 | 321 | 3.5 | 8.7 | 0.00 | 0.00 | 0.00 | 55 | 1015.9 |
| 20260502002026 | 41 | 335 | 4.3 | 8.7 | 0.00 | 0.00 | 0.00 | 55 | 1015.8 |
| 20260502001543 | 41 | 293 | 4.3 | 9.6 | 0.00 | 0.00 | 0.00 | 55 | 1015.8 |
| 20260502001030 | 41 | 338 | 4.3 | 9.6 | 0.00 | 0.00 | 0.00 | 54 | 1015.8 |
| 20260502000528 | 41 | 320 | 4.3 | 8.7 | 0.00 | 0.00 | 0.00 | 53 | 1015.6 |
| 20260502000046 | 41 | 307 | 6.1 | 9.6 | 0.00 | 0.00 | 0.00 | 54 | 1015.6 |
| 20260501235527 | 42 | 319 | 6.1 | 9.6 | 0.00 | 0.00 | 0.00 | 52 | 1015.5 |
| 20260501235028 | 42 | 330 | 4.3 | 7.8 | 0.00 | 0.00 | 0.00 | 53 | 1015.6 |
| 20260501234540 | 42 | 335 | 4.3 | 7.8 | 0.00 | 0.00 | 0.00 | 53 | 1015.5 |
| 20260501234030 | 42 | 334 | 4.3 | 7.8 | 0.00 | 0.00 | 0.00 | 52 | 1015.5 |
| 20260501233535 | 42 | 336 | 3.5 | 10.4 | 0.00 | 0.00 | 0.00 | 54 | 1015.4 |
| 20260501233038 | 42 | 325 | 4.3 | 10.4 | 0.00 | 0.00 | 0.00 | 56 | 1015.4 |
| 20260501232530 | 42 | 20 | 5.2 | 9.6 | 0.00 | 0.00 | 0.00 | 53 | 1015.4 |
| 20260501232033 | 42 | 307 | 3.5 | 8.7 | 0.00 | 0.00 | 0.00 | 54 | 1015.4 |
| 20260501231557 | 42 | 23 | 5.2 | 9.6 | 0.00 | 0.00 | 0.00 | 54 | 1015.4 |
| 20260501231031 | 42 | 323 | 4.3 | 11.3 | 0.00 | 0.00 | 0.00 | 53 | 1015.4 |
| 20260501230533 | 42 | 25 | 4.3 | 11.3 | 0.00 | 0.00 | 0.00 | 55 | 1015.3 |
| 20260501230042 | 42 | 331 | 5.2 | 11.3 | 0.00 | 0.00 | 0.00 | 53 | 1015.2 |
| 20260501225528 | 42 | 317 | 5.2 | 10.4 | 0.00 | 0.00 | 0.00 | 53 | 1015.2 |
| 20260501225035 | 43 | 334 | 6.1 | 10.4 | 0.00 | 0.00 | 0.00 | 53 | 1015.2 |
| 20260501224544 | 43 | 343 | 4.3 | 11.3 | 0.00 | 0.00 | 0.00 | 54 | 1015.3 |
| 20260501224031 | 43 | 284 | 5.2 | 11.3 | 0.00 | 0.00 | 0.00 | 54 | 1015.1 |
| 20260501223528 | 43 | 8 | 5.2 | 9.6 | 0.00 | 0.00 | 0.00 | 54 | 1015.2 |
| 20260501223108 | 43 | 21 | 5.2 | 9.6 | 0.00 | 0.00 | 0.00 | 53 | 1015.3 |
| 20260501222530 | 43 | 346 | 6.1 | 9.6 | 0.00 | 0.00 | 0.00 | 52 | 1015.2 |
| 20260501222030 | 43 | 335 | 3.5 | 9.6 | 0.00 | 0.00 | 0.00 | 54 | 1015.2 |
| 20260501221540 | 43 | 37 | 6.1 | 9.6 | 0.00 | 0.00 | 0.00 | 52 | 1015.1 |
| 20260501221027 | 43 | 359 | 4.3 | 7.8 | 0.00 | 0.00 | 0.00 | 53 | 1015.1 |
| 20260501220530 | 43 | 350 | 3.5 | 8.7 | 0.00 | 0.00 | 0.00 | 53 | 1014.8 |
| 20260501220040 | 44 | 309 | 4.3 | 10.4 | 0.00 | 0.00 | 0.00 | 51 | 1014.8 |
| 20260501215531 | 44 | 318 | 4.3 | 11.3 | 0.00 | 0.00 | 0.00 | 53 | 1014.7 |
| 20260501215031 | 44 | 320 | 5.2 | 11.3 | 0.00 | 0.00 | 0.00 | 52 | 1014.7 |
| 20260501214536 | 44 | 337 | 6.1 | 11.3 | 0.00 | 0.00 | 0.00 | 50 | 1014.7 |
| 20260501214029 | 44 | 322 | 4.3 | 7.0 | 0.00 | 0.00 | 0.00 | 49 | 1014.7 |
| 20260501213530 | 45 | 343 | 4.3 | 7.0 | 0.00 | 0.00 | 0.00 | 50 | 1014.7 |
| 20260501213041 | 45 | 297 | 1.7 | 5.2 | 0.00 | 0.00 | 0.00 | 50 | 1014.7 |
| 20260501212528 | 45 | 285 | 1.7 | 4.3 | 0.00 | 0.00 | 0.00 | 49 | 1014.7 |
| 20260501212031 | 45 | 309 | 2.6 | 7.8 | 0.00 | 0.00 | 0.00 | 49 | 1014.6 |
| 20260501211542 | 44 | 304 | 3.5 | 7.8 | 0.00 | 0.00 | 0.00 | 51 | 1014.5 |
| 20260501211028 | 44 | 318 | 3.5 | 7.0 | 0.00 | 0.00 | 0.00 | 51 | 1014.6 |
| 20260501210531 | 44 | 293 | 2.6 | 9.6 | 0.00 | 0.00 | 0.00 | 49 | 1014.5 |
| 20260501210037 | 45 | 325 | 4.3 | 9.6 | 0.00 | 0.00 | 0.00 | 49 | 1014.5 |
| 20260501205528 | 45 | 341 | 3.5 | 7.0 | 0.00 | 0.00 | 0.00 | 50 | 1014.4 |
| 20260501205031 | 45 | 344 | 2.6 | 8.7 | 0.00 | 0.00 | 0.00 | 49 | 1014.4 |
| 20260501204609 | 45 | 310 | 3.5 | 8.7 | 0.00 | 0.00 | 0.00 | 50 | 1014.4 |
| 20260501204027 | 45 | 312 | 4.3 | 12.2 | 0.00 | 0.00 | 0.00 | 48 | 1014.5 |
| 20260501203527 | 45 | 333 | 4.3 | 12.2 | 0.00 | 0.00 | 0.00 | 50 | 1014.4 |
| 20260501203038 | 45 | 285 | 3.5 | 8.7 | 0.00 | 0.00 | 0.00 | 48 | 1014.4 |
| 20260501202529 | 45 | 281 | 4.3 | 8.7 | 0.00 | 0.00 | 0.00 | 46 | 1014.5 |
| 20260501202029 | 45 | 285 | 3.5 | 8.7 | 0.00 | 0.00 | 0.00 | 49 | 1014.4 |
| 20260501201543 | 45 | 278 | 4.3 | 8.7 | 0.00 | 0.00 | 0.00 | 48 | 1014.4 |
| 20260501201031 | 45 | 317 | 4.3 | 7.8 | 0.00 | 0.00 | 0.00 | 49 | 1014.4 |
| 20260501200531 | 45 | 299 | 3.5 | 8.7 | 0.00 | 0.00 | 0.00 | 47 | 1014.3 |
| 20260501200043 | 45 | 127 | 5.2 | 8.7 | 0.00 | 0.00 | 0.00 | 50 | 1014.3 |
| 20260501195531 | 45 | 297 | 2.6 | 9.6 | 0.00 | 0.00 | 0.00 | 48 | 1014.3 |